Regional Weather Roundup
Issued by NWS Newport/Morehead, NC

Current Version | Previous Version | Text Only | Print | Product List | Glossary On
Versions: 1 2 3 4 5 6 7 8 9 10 11 12 13 14 15 16 17 18 19 20 21 22 23 24 25 26 27 28 29 30 31 32 33 34 35 36 37 38 39 40 41 42 43 44 45 46 47 48 49 50
000
ASUS42 KMHX 291325
RWRMHX
WEATHER ROUNDUP FOR EASTERN NORTH CAROLINA
NATIONAL WEATHER SERVICE NEWPORT/MOREHEAD CITY NC
900 AM EDT FRI APR 29 2016

NOTE: "FAIR" INDICATES FEW OR NO CLOUDS BELOW 12,000 FEET
WITH NO SIGNIFICANT WEATHER AND/OR OBSTRUCTIONS TO VISIBILITY

NCZ015>017-031-032-045>047-102-103-291400-
NORTH COAST

CITY           SKY/WX    TMP DP  RH WIND       PRES   REMARKS
EDENTON        CLOUDY    58  58 100 NE7       30.00R FOG
ELIZABETH CITY CLOUDY    56  54  93 N12       30.00R
KITTY HAWK     CLOUDY    56  56 100 N8        29.98R FOG
MANTEO         NOT AVBL

$$

NCZ045>047-081-094-103-104-291400-
CENTRAL COAST

CITY           SKY/WX    TMP DP  RH WIND       PRES   REMARKS
FRISCO         CLOUDY    61  59  93 N9        29.96R
SWANQUARTER    NOT AVBL

$$

NCZ095-097-098-100-101-291400-
SOUTHERN COAST

CITY           SKY/WX    TMP DP  RH WIND       PRES   REMARKS
BEAUFORT       CLOUDY    67  64  90 N8        29.94R
CEDAR ISLAND   NOT AVBL
JACKSONVILLE   CLOUDY    68  64  87 N10       29.94R
PINEY ISLAND   NOT AVBL
WILMINGTON     SUNNY     73  65  75 NW10      29.94R


$$

NCZ011>013-027>030-043-044-078>080-089-090>093-098-291400-
COASTAL PLAIN

CITY           SKY/WX    TMP DP  RH WIND       PRES   REMARKS
AHOSKIE        DRIZZLE   55  54  97 N5        30.01R
CLINTON        CLOUDY    65  65  97 N5        29.98R
ELIZABETHTOWN  CLOUDY    69  64  85 NW5       29.98R
GOLDSBORO      CLOUDY    61  61 100 N8        29.97R
GREENVILLE     CLOUDY    59  59 100 N7        30.01R FOG
HAVELOCK       CLOUDY    65  63  93 N13       29.96R FOG
KENANSVILLE    CLOUDY    64  63  94 CALM      29.98R FOG
KINSTON        FOG       61  61 100 N10       29.99R VSB 1
NEW BERN       CLOUDY    63  61  93 N8        29.98R FOG
RICHLANDS      CLOUDY    66  64  93 N6        29.96R
ROCKY MOUNT    CLOUDY    58  57  97 N9        30.00R
WASHINGTON     CLOUDY    58  58  98 N6        29.99R FOG
WHITEVILLE     CLOUDY    67  64  87 N5        29.97R

$$

AMZ130-135-150-152-154-156-158-170-250-252-270-ANZ085-086-088-633-658-670-291400-
MARINE OBSERVATIONS

STATION/POSITION TIME  TEMP    WIND        PRES    WAVE   SWELL
                       AIR SEA DIR/SP/G            HT/PER HT/PER
                 (UTC) (F)     (DEG/KT/KT) (MB)    (FT/S) (FT/S)
CHESAPEAKE LIGHT 1300   52      20/ 20/ 20 1016.0
64 E VA BEACH    1250   54 54   20/ 10/ 12 1014.1    4/ 7   3/ 7
DUCK             1300   54 66   10/ 14/ 18 1014.7
2 E DUCK         1211      58                N/A     4/ 5
OREGON INLET     1300   56 63  360/ 13/ 18 1014.8
13E OREGON INLT  1300      58                N/A     4/ 5   2/ 6
HATTERAS CG      1300   61 69  360/ 17/ 19 1014.0
DIAMOND BUOY     1250   63 71   20/ 14/ 16 1013.4    3/ 6   2/10
CAPE LOOKOUT     1300   66      10/  8/ 10 1013.6
BEAUFORT LAB     1300   66 68  360/  8/ 10 1013.1
30 SE NEW RVR IN 1225      67                N/A     3/ 5
27 SE WRIGHTSVLE 1308   69 69  330/  8/ 12 1017.1
5 SE WRIGHTSVLE  1308   69 67  360/  6/  8 1014.2
225 S CAPE HAT   1250   71 71  200/ 14/ 17 1015.2    3/10   2/10
41 SE CHARLESTON 1250   72 71  270/ 12/ 16 1014.0    3/ 4   2/ 9

$$




USA.gov is the U.S. government's official web portal to all federal, state and local government web resources and services.